Location: Peterborough
(44.3091°N, 78.3197°W)
Time: 01:26:11
(UTC-04:00)

Vanguard 2 Rocket - Pass Details

Date: 24 March 2023
Orbit: 554 x 3314 km, 32.9° (Epoch: 02 June)

Event Time Altitude Azimuth Distance (km) Brightness Sun altitude
Rises 19:17:36 0° 200° (SSW) 3,357 10.1 1.5°
Reaches altitude 10° 19:20:40 10° 179° (S) 2,744 9.4 0.9°
Maximum altitude 19:24:52 17° 140° (SE) 2,702 9.0 0.2°
Drops below altitude 10° 19:30:28 10° 104° (ESE) 3,867 9.5 -0.8°
Enters shadow 19:35:04 - 90° (E) 5,181 10.0 -1.7°
Sets 19:36:05 0° 88° (E) 5,476 - -1.8°
